Showing default

TRANSIT 5B-1, 670

Orbit data source: Space-Track

TRANSIT 5B-1, 670 is a payload satellite owned by USN BuWeps (US) in LEO that was launched on Sat, 28 Sep 1963 UTC via a THOR ABLESTAR launch vehicle from the Air Force Western Test Range (AFWTR). Payload-class satellites include a variety of spacecraft equipped with specific instruments for various scientific and technological missions. These include communications satellites like Starlink; space stations such as the ISS; scientific satellites like the Hubble; Earth observation satellites from companies like Planet Labs, Umbra, and HawkEye 360; GPS; miniature CubeSats for education and research; and military/defense satellites.

Loading next visibility...
Identifier
670, 1963-038B
Orbit
LEO
Country
Flag of USUS
Related business
Manufacturer
APL
Mission
Spacecraft
Bus & Motor
TRANSIT 5, Unknown motor
Mass
69 kg wet, 69 kg dry
Launch date (UTC)
1963-09-28 (62 years ago)
Launch vehicle
THOR ABLESTAR
Launch site
Air Force Western Test Range (AFWTR)
Object type
Payload
Rocket body
Debris
Shape & HBR
Unknown
Radar Cross Section
Medium (>0.1 m² and <1 m²)

Expand to show TLE details & history
Last TLE update: 1 day ago

TLE from 1 day ago
0 TRANSIT 5B-1
1 00670U 63038B   25315.04877742  .00000106  00000-0  16529-3 0  9991
2 00670  89.9694 333.6095 0039820 300.3642  59.3572 13.44643615 44870
Epoch: 2025-11-11T01:10Z
TLE epoch observation values (Epoch: 2025-11-11T01:10:14.369Z)
Latitude
0.00009°
Longitude
-94.39129°
Altitude
1,079.901 km
Speed
7.319 km/s
True Right ascension
22h 14m 26s
True Declination
0° 00' 00"
Sunlit
Object was in daylight at epoch
Visualization orbit readout
Latitude
Unknown
Longitude
Unknown
Altitude
Unknown
Speed
Unknown
Apparent Right ascension
Unknown
Apparent Declination
Unknown
Sunlit
N/A
Visualization observer readout
Local Sidereal Time
01:35:36
Azimuth
Unknown
Elevation
Unknown
Doppler factor
Unknown
Orbital elements
Apogee altitude
1,118.823 km
Perigee altitude
1,059.354 km
Semi-major axis
7,467.226 km
Eccentricity
0.00398
Inclination
89.9694°
RAAN
333.6095°
Arg. of periapsis
300.3642°
True anomaly
59.75078°
Mean anomaly
59.3572°
Eccentric anomaly
59.55389°
Mean motion
3.3636 °/min
Orbital period
107.03 mins
BSTAR
0.00016529
Loading maneuver chart data...
Computing Atmospheric mass density...

Documentation

Showing up to 5 results
|